Tracking 20719 objects as of 25-May-2020
HD Live streaming from Space Station
objects crossing your sky now

WESTFORD NEEDLES

Track WESTFORD NEEDLES now!
10-day predictions
WESTFORD NEEDLES is classified as:


NORAD ID: 19109
Int'l Code: 1963-014EJ
Perigee: 2,468.6 km
Apogee: 4,751.0 km
Inclination: 87.0 °
Period: 165.4 minutes
Semi major axis: 9980 km
RCS: 0.124 m2 (medium)
Launch date: May 9, 1963
Source: United States (US)
Launch site: AIR FORCE WESTERN TEST RANGE (AFWTR)
aabbcc
Your satellite tracking list
Your tracking list is empty




NASA's NSSDC Master Catalog

Two Line Element Set (TLE):
1 19109U 63014EJ  20143.41739465 +.00000568 +00000-0 +12908+0 0  9991
2 19109 087.0003 294.7221 1143399 105.4564 267.5307 08.70667628887027
Source of the keplerian elements: AFSPC